Weather History for The Dalles, OR

Change the Weather History Date:

Wednesday, December 5, 2012

  Actual Average Record
Temperature  
Mean Temperature 43 °F -  
Max Temperature 51 °F 42 °F 58 °F (1953)
Min Temperature 35 °F 31 °F 7 °F (1972)
Degree Days  
Heating Degree Days 22    
Moisture  
Dew Point 35 °F    
Average Humidity 72    
Maximum Humidity 89    
Minimum Humidity 52    
Precipitation  
Precipitation 0.01 in - - ()
Sea Level Pressure  
Sea Level Pressure 30.15 in    
Wind  
Wind Speed 10 mph (WNW)    
Max Wind Speed 20 mph    
Max Gust Speed 22 mph    
Visibility 10 miles    
Events Rain    
Averages and records for this station are not official NWS values.
T = Trace of Precipitation, MM = Missing Value Source: NWS Daily Summary

Daily Weather History Graph

Daily Weather History Graph

Search for Another Location

Airport:

Trip Planner

Search our weather history database for the weather conditions in past years. The results will help you decide how hot, cold, wet, or windy it might be!

Date:

Astronomy

Dec. 05, 2012 Rise Set
Actual Time 7:29 AM PST 4:21 PM PST
Civil Twilight 6:55 AM PST 4:54 PM PST
Nautical Twilight 6:18 AM PST 5:32 PM PST
Astronomical Twilight 5:42 AM PST 6:08 PM PST
Moon 11:32 PM PST (12/5) 11:41 AM PST (12/5)
Length of Visible Light 9h 59m
Length of Day
8h 51m
Waning Gibbous, 58% of the Moon is Illuminated
Dec 5
Waning Gibbous
Dec 6
Last Quarter
Dec 13
New
Dec 19
First Quarter
Dec 28
Full

Hourly Weather History & Observations

Time (PST) Temp. Windchill Dew Point Humidity Pressure Visibility Wind Dir Wind Speed Gust Speed Precip Events Conditions
12:53 AM 48.9 °F - 43.0 °F 80% 29.91 in 10.0 mi NW 12.7 mph - 0.00 in Rain Light Rain
1:53 AM 48.0 °F - 42.1 °F 80% 29.94 in 10.0 mi NW 6.9 mph - N/A   Mostly Cloudy
2:53 AM 48.0 °F - 39.9 °F 74% 29.98 in 10.0 mi NW 15.0 mph - N/A   Overcast
3:53 AM 46.0 °F 38.5 °F 37.9 °F 73% 30.00 in 9.0 mi WNW 19.6 mph - 0.01 in Rain Light Rain
4:53 AM 46.0 °F 39.6 °F 37.0 °F 71% 30.02 in 10.0 mi WNW 15.0 mph 21.9 mph 0.00 in   Partly Cloudy
6:53 AM 45.0 °F - 36.0 °F 71% 30.10 in 10.0 mi Calm Calm - 0.00 in   Overcast
7:53 AM 45.0 °F 43.5 °F 36.0 °F 71% 30.13 in 10.0 mi Variable 3.5 mph - 0.00 in   Overcast
8:53 AM 46.0 °F 39.9 °F 37.0 °F 71% 30.15 in 10.0 mi WNW 13.8 mph - N/A   Scattered Clouds
9:53 AM 46.9 °F - 37.0 °F 68% 30.18 in 10.0 mi NW 15.0 mph - N/A   Clear
10:53 AM 48.0 °F - 36.0 °F 63% 30.19 in 10.0 mi NW 15.0 mph - N/A   Overcast
11:53 AM 48.0 °F - 34.0 °F 58% 30.19 in 10.0 mi NW 12.7 mph - N/A   Clear
12:53 PM 51.1 °F - 34.0 °F 52% 30.20 in 10.0 mi NW 13.8 mph 19.6 mph N/A   Scattered Clouds
1:53 PM 48.9 °F - 35.1 °F 59% 30.19 in 10.0 mi NW 9.2 mph - N/A   Scattered Clouds
2:53 PM 46.9 °F - 35.1 °F 63% 30.20 in 10.0 mi WNW 6.9 mph - N/A   Clear
3:53 PM 46.0 °F 42.5 °F 34.0 °F 63% 30.21 in 10.0 mi WNW 6.9 mph - N/A   Clear
4:53 PM 44.1 °F - 33.1 °F 65% 30.22 in 10.0 mi Calm Calm - N/A   Clear
5:53 PM 39.9 °F - 33.1 °F 77% 30.23 in 10.0 mi Calm Calm - N/A   Clear
6:53 PM 39.9 °F 35.1 °F 34.0 °F 79% 30.23 in 10.0 mi WSW 6.9 mph - N/A   Clear
7:53 PM 37.9 °F 34.4 °F 32.0 °F 79% 30.24 in 10.0 mi East 4.6 mph - N/A   Clear
8:53 PM 37.0 °F 34.5 °F 32.0 °F 82% 30.25 in 10.0 mi ESE 3.5 mph - N/A   Mostly Cloudy
9:53 PM 35.1 °F 32.2 °F 32.0 °F 89% 30.25 in 10.0 mi SSE 3.5 mph - N/A   Mostly Cloudy
10:53 PM 36.0 °F - 32.0 °F 86% 30.24 in 10.0 mi Calm Calm - N/A   Mostly Cloudy
11:53 PM 35.1 °F 30.1 °F 30.9 °F 85% 30.24 in 10.0 mi SSE 5.8 mph - N/A   Mostly Cloudy